Regional Weather Roundup
Issued by NWS

Home | Current Version | Previous Version | Text Only | Print | Product List | Glossary Off
Versions: 1 2 3 4 5 6 7 8 9 10 11 12 13 14 15 16 17 18 19 20 21 22 23 24 25 26 27 28 29 30 31 32 33 34 35 36 37 38 39 40 41 42 43 44 45 46 47 48 49 50

000
ASUS43 KLMK 011610
RWRKY
KENTUCKY REGIONAL WEATHER ROUNDUP
NATIONAL WEATHER SERVICE LOUISVILLE KY
1200 PM EDT MON SEP 01 2014

NOTE "FAIR" INDICATES FEW OR NO CLOUDS BELOW 12,000 FEET
WITH NO SIGNIFICANT WEATHER AND/OR OBSTRUCTIONS TO VISIBILITY.

KYZ001>023-026-027-061>063-070>075-011700-
WESTERN AND SOUTH CENTRAL KENTUCKY

CITY           SKY/WX    TMP DP  RH WIND       PRES   REMARKS
PADUCAH        CLOUDY    83  72  69 SW22G35   29.99R
HENDERSON      PTSUNNY   84  72  65 SW15G29   29.94F
OWENSBORO      PTSUNNY   82  73  74 SW12G18   29.98F
HOPKINSVILLE   SUNNY     83  78  84 SW15      30.03S HX  93
BOWLING GREEN  MOSUNNY   84  72  67 SW16      30.05F
GLASGOW        PTSUNNY   83  72  70 SW8G17    30.06F
$$

KYZ024-025-028>034-038-045-046-053-011700-
NORTH CENTRAL KENTUCKY

CITY           SKY/WX    TMP DP  RH WIND       PRES   REMARKS
LOUISVILLE/SDF PTSUNNY   82  73  74 SW16      29.99S
LOUISVILLE/LOU PTSUNNY   80  73  79 SW14G21   30.00F
FORT KNOX      PTSUNNY   81  73  78 S15G21    30.00F
$$

KYZ035>037-039>044-047>052-055>060-089>105-011700-
NORTHEAST KENTUCKY

CITY           SKY/WX    TMP DP  RH WIND       PRES   REMARKS
LEXINGTON      MOSUNNY   83  72  69 S13       30.05F
COVINGTON      PTSUNNY   81  72  74 SW12      29.98F
FRANKFORT      PTSUNNY   82  72  71 SW13      30.02F
$$

KYZ054-064>069-076>088-106>120-011700-
SOUTHEAST KENTUCKY

CITY           SKY/WX    TMP DP  RH WIND       PRES   REMARKS
JACKSON        PTSUNNY   81  71  71 VRB6      30.12S
LONDON         PTSUNNY   82  69  64 SW6       30.13S
SOMERSET       MOSUNNY   81  70  69 SW6       30.11F
MIDDLESBORO    PTSUNNY   82  70  68 SE3       30.14S
MONTICELLO     SUNNY     84  73  69 SW12      30.12F HX  90
$$




USA.gov is the U.S. government's official web portal to all federal, state and local government web resources and services.